Location: Mexico
(19.4000°N, 99.1500°W)
Time: 02:03:36
(UTC-06:00)

ISS - Pass Details

Date: 22 November 2017
Orbit: 402 x 407 km, 51.6° (Epoch: 21 November)

Event Time Altitude Azimuth Distance (km) Brightness Sun altitude
Exits shadow 06:01:52 17° 269° (W) 1,112 -2.2 -11.3°
Maximum altitude 06:03:12 21° 235° (SW) 951 -2.3 -11.0°
Drops below altitude 10° 06:05:44 10° 183° (S) 1,440 -0.8 -10.4°
Sets 06:08:07 0° 166° (SSE) 2,297 0.5 -9.9°
